Stations météo

Publicité
Calvi, France (7754): Température de l'air & dewpoint: 18.05.2017 11:00:00 - 24.05.2017 11:00:00 (CEST)Calvi, France (7754): Température de l'air 5cm: 18.05.2017 11:00:00 - 24.05.2017 11:00:00 (CEST)Calvi, France (7754): Vitesse du vent & gusts: 18.05.2017 11:00:00 - 24.05.2017 11:00:00 (CEST)Calvi, France (7754): Direction du vent: 18.05.2017 11:00:00 - 24.05.2017 11:00:00 (CEST)Calvi, France (7754): reduced air pressure: 18.05.2017 11:00:00 - 24.05.2017 11:00:00 (CEST)Calvi, France (7754): visibility: 18.05.2017 11:00:00 - 24.05.2017 11:00:00 (CEST)Calvi, France (7754): Ensoleillement: 18.05.2017 11:00:00 - 24.05.2017 11:00:00 (CEST)Calvi, France (7754): Quantités de précipitations: 18.05.2017 11:00:00 - 24.05.2017 11:00:00 (CEST)
Date & Time tt [°C] td [°C] tt 5cm [°C] ff [km/h] ff [knt] fx [km/h] fx [knt] dd ppp [hPa] vv [km] sd [min] rr [mm]
24.05.2017 11:00:00 22,6 15,2 25,3 11 6 18 10 N 1019,0 40 60 0,0
24.05.2017 10:00:00 21,3 15,2 23,1 6 3 14 7 NNE 1019,3 30 60 0,0
24.05.2017 09:00:00 20,2 15,4 21,2 5 3 10 6 NNE 1019,3 30 60 0,0
24.05.2017 08:00:00 18,2 13,3 15,0 2 1 8 4 S 1019,1 40 60 0,0
24.05.2017 07:00:00 13,6 10,2 11,3 3 1 15 8 SSW 1018,8 40 28 0,0
24.05.2017 06:00:00 11,3 8,9 10,8 10 5 14 8 S 1018,7 49 0 0,0
24.05.2017 05:00:00 11,4 9,0 10,4 9 5 12 7 SSW 1018,8 50 0 0,0
24.05.2017 04:00:00 11,5 8,5 10,7 2 1 13 7 S 1018,9 55 0 0,0
24.05.2017 03:00:00 11,9 9,1 11,0 9 5 11 6 SSW 1018,9 60 0 0,0
24.05.2017 02:00:00 12,4 8,9 11,8 4 2 8 4 S 1019,0 56 0 0,0
24.05.2017 01:00:00 13,7 9,7 12,6 5 3 14 7 SSE 1019,1 60 0 0,0
24.05.2017 00:00:00 13,3 10,1 12,5 3 1 9 5 S 1019,5 59 0 0,0
23.05.2017 23:00:00 14,4 10,8 13,7 5 3 12 6 S 1019,4 59 0 0,0
23.05.2017 22:00:00 16,2 12,7 15,4 6 4 9 5 S 1019,1 60 0 0,0
23.05.2017 21:00:00 18,2 14,5 17,7 6 3 17 9 ENE 1018,8 60 3 0,0
23.05.2017 20:00:00 20,5 12,7 22,1 13 7 19 10 N 1018,3 60 60 0,0
23.05.2017 19:00:00 22,2 11,3 25,5 10 6 20 11 N 1017,8 55 60 0,0
23.05.2017 18:00:00 22,3 11,4 26,4 15 8 24 13 NNE 1018,5 60 60 0,0
23.05.2017 17:00:00 22,1 14,0 26,8 15 8 27 15 N 1018,5 60 60 0,0
23.05.2017 16:00:00 21,9 15,3 28,0 19 11 30 16 N 1018,7 59 60 0,0
23.05.2017 15:00:00 21,9 16,2 25,6 19 10 29 16 N 1019,0 20 60 0,0
23.05.2017 14:00:00 21,6 16,3 26,3 23 12 33 18 NNE 1019,2 40 60 0,0
23.05.2017 13:00:00 21,9 15,3 26,5 26 14 35 19 N 1019,1 40 60 0,0
23.05.2017 12:00:00 23,1 13,0 27,7 22 12 31 17 N 1018,7 40 60 0,0
23.05.2017 11:00:00 24,0 8,0 27,0 17 9 22 12 N 1018,6 60 60 0,0
23.05.2017 10:00:00 23,4 7,9 25,7 12 7 17 9 N 1018,6 30 60 0,0
23.05.2017 09:00:00 22,7 6,4 23,5 4 2 8 4 N 1018,6 30 60 0,0
23.05.2017 08:00:00 19,1 8,4 14,3 0 0 6 3 N 1018,4 59 60 0,0
23.05.2017 07:00:00 12,7 7,8 10,2 2 1 13 7 SSE 1018,4 30 28 0,0
23.05.2017 06:00:00 10,8 6,7 9,9 6 4 14 8 S 1018,1 60 0 0,0
23.05.2017 05:00:00 11,4 6,9 10,4 7 4 16 9 S 1017,9 60 0 0,0
23.05.2017 04:00:00 10,8 7,1 10,1 7 4 13 7 S 1018,0 60 0 0,0
23.05.2017 03:00:00 12,4 8,9 10,7 10 6 15 8 S 1018,1 60 0 0,0
23.05.2017 02:00:00 11,9 8,9 11,0 6 3 10 6 S 1018,3 60 0 0,0
23.05.2017 01:00:00 13,3 9,9 12,2 4 2 14 8 NE 1018,3 60 0 0,0
23.05.2017 00:00:00 13,5 9,7 13,2 10 5 16 9 SSW 1018,3 60 0 0,0
22.05.2017 23:00:00 14,1 10,3 13,5 8 4 11 6 SSW 1018,3 60 0 0,0
22.05.2017 22:00:00 15,7 11,3 14,9 4 2 11 6 SSE 1018,0 59 0 0,0
22.05.2017 21:00:00 18,0 11,5 17,3 4 2 17 9 SW 1017,7 51 0 0,0
22.05.2017 20:00:00 19,7 12,5 20,7 10 6 23 12 NE 1017,8 60 40 0,0
22.05.2017 19:00:00 21,1 12,5 23,1 11 6 18 10 N 1017,7 40 58 0,0
22.05.2017 18:00:00 22,4 12,9 23,2 6 3 14 8 NE 1018,0 35 16 0,0
22.05.2017 17:00:00 20,8 13,5 23,2 8 5 17 9 N 1018,4 35 1 0,0
22.05.2017 16:00:00 20,8 14,0 23,3 12 7 25 13 NNE 1018,9 35 0 0,0
22.05.2017 15:00:00 21,8 14,9 24,6 17 9 28 15 NNE 1019,2 35 19 0,0
22.05.2017 14:00:00 22,4 12,9 26,4 21 11 31 17 N 1018,9 60 57 0,0
22.05.2017 13:00:00 23,2 10,9 27,4 23 13 34 18 N 1019,0 35 60 0,0
22.05.2017 12:00:00 22,3 13,4 26,8 21 11 29 16 N 1019,1 35 60 0,0
22.05.2017 11:00:00 22,1 12,9 23,9 13 7 19 11 NNE 1019,3 50 46 0,0
22.05.2017 10:00:00 21,6 10,7 24,1 16 9 24 13 N 1019,0 50 57 0,0
22.05.2017 09:00:00 22,2 10,0 22,8 4 2 8 5 NNE 1018,7 60 60 0,0
22.05.2017 08:00:00 19,2 11,5 15,1 0 0 11 6 N 1018,7 45 60 0,0
22.05.2017 07:00:00 13,5 10,3 12,2 4 2 13 7 S 1018,7 45 20 0,0
22.05.2017 06:00:00 12,5 9,5 10,8 10 5 14 7 S 1018,7 51 0 0,0
22.05.2017 05:00:00 11,3 8,3 10,3 9 5 12 7 S 1018,8 52 0 0,0
22.05.2017 04:00:00 12,0 8,8 11,4 6 3 14 7 S 1018,9 57 0 0,0
22.05.2017 03:00:00 12,9 9,3 12,0 10 6 14 8 S 1019,2 60 0 0,0
22.05.2017 02:00:00 13,3 9,4 12,0 11 6 14 8 S 1019,8 56 0 0,0
22.05.2017 01:00:00 12,9 9,3 12,2 8 4 13 7 S 1020,3 58 0 0,0
22.05.2017 00:00:00 13,2 9,3 13,2 10 6 13 7 SSE 1020,4 54 0 0,0
21.05.2017 23:00:00 14,6 10,0 14,0 8 5 12 6 S 1020,4 52 0 0,0
21.05.2017 22:00:00 15,6 11,6 15,4 5 3 8 4 S 1020,2 39 0 0,0
21.05.2017 21:00:00 17,9 13,8 17,4 5 3 9 5 E 1019,7 35 1 0,0
21.05.2017 20:00:00 20,2 13,9 21,7 8 4 15 8 N 1019,2 48 60 0,0
21.05.2017 19:00:00 20,7 13,9 23,2 12 7 23 12 N 1019,3 25 60 0,0
21.05.2017 18:00:00 21,2 13,6 25,9 16 9 29 16 N 1019,2 20 60 0,0
21.05.2017 17:00:00 22,1 13,4 27,6 20 11 28 15 N 1019,2 60 60 0,0
21.05.2017 16:00:00 22,4 11,5 28,5 20 11 31 17 N 1019,5 30 60 0,0
21.05.2017 15:00:00 22,1 11,2 27,3 17 9 28 15 NNW 1019,6 59 60 0,0
21.05.2017 14:00:00 21,6 11,9 25,0 17 9 30 16 N 1019,7 20 60 0,0
21.05.2017 13:00:00 21,1 10,3 25,5 13 7 33 18 NW 1019,9 30 60 0,0
21.05.2017 12:00:00 20,5 13,7 24,8 18 10 34 18 NNW 1019,9 60 60 0,0
21.05.2017 11:00:00 21,0 11,9 23,5 17 9 32 17 WNW 1019,8 20 60 0,0
21.05.2017 10:00:00 20,1 10,8 22,5 13 7 23 12 N 1019,7 30 60 0,0
21.05.2017 09:00:00 20,0 9,3 21,5 8 4 15 8 N 1019,5 30 60 0,0
21.05.2017 08:00:00 18,8 8,4 14,2 2 1 5 3 ESE 1019,5 58 60 0,0
21.05.2017 07:00:00 13,0 5,9 9,5 3 2 11 6 S 1019,2 30 25 0,0
21.05.2017 06:00:00 11,3 4,5 9,8 5 3 10 5 SSW 1018,6 60 0 0,0
21.05.2017 05:00:00 12,0 4,9 10,6 6 4 13 7 S 1018,4 60 0 0,0
21.05.2017 04:00:00 12,4 5,1 10,8 8 5 12 6 S 1018,2 60 0 0,0
21.05.2017 03:00:00 13,4 4,8 12,5 6 3 24 13 S 1018,2 60 0 0,0
21.05.2017 02:00:00 14,8 5,0 14,2 17 9 22 12 SSE 1018,6 60 0 0,0
21.05.2017 01:00:00 15,6 5,8 15,0 16 9 25 13 SSE 1018,6 60 0 0,0
21.05.2017 00:00:00 17,6 5,5 16,5 19 10 29 15 S 1018,5 60 0 0,0
20.05.2017 23:00:00 17,6 6,8 16,8 19 10 39 21 S 1018,6 60 0 0,0
20.05.2017 22:00:00 17,1 8,0 16,8 25 13 41 22 S 1018,7 60 0 0,0
20.05.2017 21:00:00 17,7 7,7 17,4 24 13 41 22 S 1018,0 59 1 0,0
20.05.2017 20:00:00 18,4 7,5 19,1 22 12 44 24 SSW 1018,0 50 60 0,0
20.05.2017 19:00:00 19,3 7,4 21,2 29 16 44 24 SSW 1018,1 20 60 0,0
20.05.2017 18:00:00 20,6 7,6 23,9 19 10 38 20 SSW 1018,4 20 60 0,0
20.05.2017 17:00:00 20,1 9,0 24,3 23 12 44 24 SW 1018,2 20 60 0,0
20.05.2017 16:00:00 19,8 9,7 24,2 24 13 51 28 SW 1018,0 49 60 0,0
20.05.2017 15:00:00 20,5 9,1 23,8 23 12 50 27 SW 1018,0 20 60 0,0
20.05.2017 14:00:00 20,4 8,4 23,2 27 15 53 28 SW 1018,1 20 60 0,0
20.05.2017 13:00:00 20,2 7,5 22,5 26 14 49 26 SW 1018,7 20 58 0,0
20.05.2017 12:00:00 20,7 9,0 21,8 24 13 42 23 SW 1018,5 20 58 0,0
20.05.2017 11:00:00 20,1 9,9 19,7 26 14 46 25 SW 1018,3 19 52 0,0
20.05.2017 10:00:00 19,9 7,9 20,9 25 13 49 26 SW 1018,0 20 60 0,0
20.05.2017 09:00:00 19,9 7,9 19,0 28 15 53 29 SSW 1017,5 20 58 0,0
20.05.2017 08:00:00 18,8 7,6 17,7 22 12 39 21 SSW 1017,2 47 60 0,0
20.05.2017 07:00:00 17,5 7,5 16,0 21 11 45 24 S 1016,9 20 24 0,0
20.05.2017 06:00:00 16,6 7,5 15,9 24 13 40 22 S 1016,4 10 0 0,0
20.05.2017 05:00:00 16,6 7,5 15,6 21 12 39 21 SSW 1016,2 60 0 0,0
20.05.2017 04:00:00 16,4 8,4 15,7 20 11 42 23 S 1016,7 60 0 0,0
20.05.2017 03:00:00 16,4 8,6 15,9 23 13 39 21 S 1017,0 60 0 0,0
20.05.2017 02:00:00 16,3 7,8 15,8 22 12 43 23 S 1017,5 60 0 0,0
20.05.2017 01:00:00 16,1 7,6 15,5 22 12 37 20 SSW 1017,6 60 0 0,0
20.05.2017 00:00:00 15,9 7,6 15,5 21 11 39 21 SSW 1017,5 60 0 0,0
19.05.2017 23:00:00 16,1 8,3 15,5 23 12 35 19 S 1017,5 60 0 0,0
19.05.2017 22:00:00 16,5 7,2 15,9 17 9 34 19 S 1017,5 60 0 0,0
19.05.2017 21:00:00 16,6 9,5 16,4 19 11 33 18 SSW 1016,6 60 0 0,0
19.05.2017 20:00:00 18,0 10,4 18,8 17 9 39 21 SSW 1016,6 56 60 0,0
19.05.2017 19:00:00 18,8 11,4 20,6 21 12 56 30 SW 1015,4 25 60 0,0
19.05.2017 18:00:00 19,7 11,7 22,3 34 18 51 27 SSW 1014,8 30 60 0,0
19.05.2017 17:00:00 21,4 12,5 25,4 29 15 45 24 SSW 1014,5 30 60 0,0
19.05.2017 16:00:00 22,4 13,2 22,9 27 15 46 25 SW 1014,2 30 48 0,0
19.05.2017 15:00:00 21,6 14,7 23,3 27 15 40 21 SW 1014,1 30 20 0,0
19.05.2017 14:00:00 23,2 14,7 25,2 15 8 26 14 SW 1014,0 30 26 0,0
19.05.2017 13:00:00 23,2 13,4 25,5 4 2 17 9 SSE 1014,3 30 23 0,0
19.05.2017 12:00:00 21,5 15,6 21,4 8 5 16 9 ENE 1014,6 30 10 0,0
19.05.2017 11:00:00 19,8 14,4 16,5 3 2 14 7 N 1014,9 32 0 0,0
19.05.2017 10:00:00 18,8 12,5 16,1 13 7 21 11 SSW 1014,5 10 0 0,6
19.05.2017 09:00:00 21,2 11,8 18,3 4 2 21 11 N 1013,6 20 5 0,0
19.05.2017 08:00:00 20,5 10,6 19,7 13 7 33 18 SSE 1013,4 60 0 0,0
19.05.2017 07:00:00 19,9 10,9 18,8 14 8 23 12 SSE 1013,3 40 0 0,0
19.05.2017 06:00:00 18,6 9,9 17,2 6 3 12 7 SSW 1013,2 60 0 0,0
19.05.2017 05:00:00 17,5 10,1 15,0 4 2 13 7 SSW 1012,4 58 0 0,0
19.05.2017 04:00:00 16,0 10,3 14,7 5 3 16 9 WSW 1012,6 58 0 0,0
19.05.2017 03:00:00 17,3 10,7 16,4 11 6 16 8 S 1012,3 52 0 0,0
19.05.2017 02:00:00 17,5 10,8 17,2 5 3 11 6 S 1012,4 56 0 0,0
19.05.2017 01:00:00 18,5 10,8 17,0 10 5 13 7 SSE 1012,8 52 0 0,0
19.05.2017 00:00:00 17,0 11,9 16,9 7 4 10 5 SSW 1013,4 38 0 0,0
18.05.2017 23:00:00 17,7 12,8 17,5 5 3 8 4 SE 1013,8 29 0 0,0
18.05.2017 22:00:00 18,7 13,3 18,0 2 1 7 4 NNW 1013,5 29 0 0,0
18.05.2017 21:00:00 19,5 13,4 19,2 4 2 7 4 S 1013,5 30 0 0,0
18.05.2017 20:00:00 20,6 14,0 21,4 0 0 9 5 N 1013,5 10 0 0,0
18.05.2017 19:00:00 21,0 13,9 22,4 8 5 18 10 N 1013,4 20 37 0,0
18.05.2017 18:00:00 22,2 13,5 25,6 14 7 22 12 N 1013,5 25 49 0,0
18.05.2017 17:00:00 22,9 13,4 27,5 17 9 23 13 N 1013,7 20 60 0,0
18.05.2017 16:00:00 24,0 9,2 26,0 12 6 18 10 N 1014,0 19 16 0,0
18.05.2017 15:00:00 23,6 8,8 27,1 11 6 22 12 N 1014,4 20 9 0,0
18.05.2017 14:00:00 23,7 8,5 27,2 16 9 25 14 N 1014,5 20 24 0,0
18.05.2017 13:00:00 25,9 7,9 28,1 12 6 25 14 NNW 1014,7 60 60 0,0
18.05.2017 12:00:00 22,9 13,4 27,3 18 10 27 14 N 1015,1 20 60 0,0
18.05.2017 11:00:00 23,9 12,2 26,5 13 7 21 12 N 1015,0 25 60 0,0

tt = Température de l'air
td = dewpoint
tt 5cm = Température de l'air 5cm
ff = Vitesse du vent
fx = gusts
dd = Direction du vent
ppp = reduced air pressure
vv = visibility
sd = Ensoleillement
rr = Quantités de précipitations

stations d'obs. à proximité